Simultaneous Nadir Overpasses (SNOs) Predictions

Prediction of SNOs between AQUA and METOP-A Satellite Orbit:

Table of predicted SNOs for the next 14.0 days since TLE Epoch: 8/7/2021
Index Date (AQUA) Time (AQUA) Lat,Lon (AQUA) SZA (AQUA ) Date (METOP-A) Time (METOP-A) Lat,Lon (METOP-A) SZA (METOP-A ) Distance(km) Time Diff (sec)
1 08/09/2021 03:04:16 77.61, 117.00 62.42 08/09/2021 03:04:00 77.64, 116.98 62.45 3.61 16
2 08/09/2021 03:53:43 -77.67, -75.60 117.51 08/09/2021 03:54:41 -77.66, -75.62 117.53 1.28 58
3 08/11/2021 21:48:56 -77.30, 17.05 117.16 08/11/2021 21:47:49 -77.24, 14.26 116.98 68.71 67
4 08/11/2021 22:38:31 77.66,-176.75 63.29 08/11/2021 22:38:20 77.64,-176.71 63.27 2.63 11
5 08/11/2021 23:27:57 -77.66, -9.14 116.69 08/11/2021 23:29:00 -77.70, -9.11 116.68 3.80 63
6 08/14/2021 17:23:17 -77.58, 82.38 115.97 08/14/2021 17:22:04 -77.50, 81.69 115.97 18.92 73
7 08/14/2021 18:12:46 77.66,-110.34 64.15 08/14/2021 18:12:40 77.67,-110.22 64.15 2.94 6
8 08/14/2021 19:02:13 -77.71, 57.10 115.78 08/14/2021 19:03:21 -77.69, 57.21 115.83 3.43 68
9 08/17/2021 12:57:33 -77.63, 148.60 115.03 08/17/2021 12:56:22 -77.62, 148.56 115.02 1.63 71
10 08/17/2021 13:47:01 77.68, -43.96 65.04 08/17/2021 13:47:01 77.66, -43.93 65.03 2.26 0
11 08/17/2021 14:36:28 -77.72, 123.51 114.90 08/17/2021 14:37:41 -77.73, 123.71 114.92 4.99 73
12 08/20/2021 08:31:47 -77.64,-145.02 114.11 08/20/2021 08:30:41 -77.65,-144.95 114.09 1.83 66
13 08/20/2021 09:21:15 77.69, 22.40 65.97 08/20/2021 09:21:20 77.69, 22.54 65.95 3.36 5



Historial Predications of SNOs between AQUA and METOP-A
